Location: Frankfurt+(oder)
(51.7984°N, 12.2168°E)
Time: 03:08:11
(UTC+01:00)

OTV 5 (USA 277) - Visible Passes

Search period start: 18 January 2018 00:00
Search period end: 28 January 2018 00:00
Orbit: 404 x 417 km, 43.0° (Epoch: 07 September)

Date Brightness Start Highest point End Pass type
(mag) Time Alt. Az. Time Alt. Az. Time Alt. Az.
25 Jan ? 19:12:57 10° SSW 19:13:52 13° S 19:13:52 13° S visible
26 Jan ? 18:22:31 10° S 18:24:06 13° SSE 18:25:15 11° SE visible
27 Jan ? 17:32:39 10° SSE 17:33:15 10° SSE 17:33:50 10° SSE visible
27 Jan ? 19:07:22 10° SW 19:09:24 18° S 19:09:24 18° S visible
